SCP
0 0 0 0 0 0 0 -0 -0 -0 -0 -0 -0 -0 -0 -0 -0 0 0 0 0 0 0 0 0 0 0 0 0 0 0 0 0 0 0 0 0 0 0 0 -0 -0 0 0 0 -0 0 -0 0 0 0 0 0 0
0 0 0 0 0 0 0 -0 -0 -0 -0 -0 -0 -0 -0 -0 -0 -0 0 -0 0 0 -0 0 0 0 0 0 0 0 0 0 0 0 0 0 -0 0 0 0 0 0 0 0 0 0 0 0 0 0 0 0 0 0
0 0 0 0 0 0 0 0 0 -0 -0 -0 -0 -0 -0 -0 -0 -0 0 0 0 -0 0 0 0 0 0 0 0 0 0 0 0 0 0 0 0 0 -0 0 -0 -0 -0 0 0 0 0 0 0 0 0 0 0 0
0 0 0 0 0 0 0 0 0 -0 -0 -0 -0 -0 -0 -0 -0 -0 0 0 0 0 0 -0 0 0 0 0 0 0 0 -0 0 0 0 -0 0 -0 -0 0 -0 0 -0 0 0 0 0 0 0 0 0 0 0 0
0 0 0 0 0 0 0 0 0 -0 -0 -0 -0 -0 -0 -0 -0 0 0 0 -0 0 -0 -0 -0 -0 -0 -0 0 -0 -0 0 0 0 0 0 -0 0 0 0 -0 0 0 0 0 0 0 0 0 0 0 0 0 0
0 0 0 0 0 0 0 0 -0 -0 -0 -0 -0 -0 -0 -0 -0 0 0 0 -0 -0 -0 -0 -0 0 0 0 -0 0 0 0 -0 -0 0 -0 -0 0 0 0 0 0 0 0 0 0 0 0 0 0 0 0 0 0
0 0 0 0 0 0 0 0 -0 -0 -0 -0 -0 -0 -0 0 0 0 0 -0 -0 -0 -0 -0 -0 0 0 0 0 -0 0 0 0 -0 0 0 -0 0 0 0 0 0 0 0 0 -0 0 0 0 0 0 0 0 0
0 0 0 0 0 0 0 0 -0 -0 -0 -0 -0 -0 -0 0 0 0 0 -0 -0 -0 -0 -0 -0 0 0 0 -0 0 -0 -0 0 -0 0 0 0 0 0 0 0 0 0 0 0 0 0 0 0 0 0 0 0 0
0 0 0 0 0 0 0 0 -0 -0 -0 -0 0 -0 0 0 0 0 0 -0 0 0 0 0 -0 -0 0 0 0 0 0 0 0 0 0 0 0 0 0 0 0 0 0 0 0 0 0 0 0 0 0 0 0 0
0 0 0 0 0 0 0 0 -0 -0 -0 0 0 0 0 0 0 0 0 0 0 0 0 0 -0 0 -0 -0 -0 -0 0 0 0 0 0 0 0 0 0 0 0 0 0 0 0 0 0 0 0 0 0 0 0 0
0 0 0 0 0 0 0 0 -0 -0 0 0 0 0 0 0 0 0 0 0 0 0 0 0 -0 -0 0 -0 0 -0 0 0 0 0 0 0 0 0 0 0 0 0 0 0 0 0 0 0 0 0 0 0 0 0
0 0 0 0 0 0 0 0 0 0 0 0 0 0 0 0 0 0 0 0 0 0 0 0 0 -0 0 0 0 0 0 0 0 0 0 0 0 0 0 0 0 0 0 0 0 0 0 0 0 0 0 0 0 0
0 0 0 0 0 0 0 0 0 0 0 0 0 0 0 0 0 0 0 0 0 0 0 0 0 0 0 0 0 0 0 0 0 0 0 0 0 0 0 0 0 0 0 0 0 0 0 0 0 0 0 0 0 0
0 0 0 0 0 0 0 0 0 0 0 0 0 0 0 0 0 0 0 0 0 0 0 0 0 0 0 0 0 0 0 0 0 0 0 0 0 0 0 0 0 0 0 0 0 0 0 0 0 0 0 0 0 0
0 0 0 0 0 0 0 0 0 0 0 0 0 0 0 0 0 0 0 0 0 0 0 0 0 0 0 0 0 0 0 0 0 0 0 0 0 0 0 0 0 0 0 0 0 0 0 0 0 0 0 0 0 0
0 0 0 0 0 0 0 0 0 0 0 0 0 0 0 0 0 0 0 0 0 0 0 0 0 0 0 0 0 0 0 0 0 0 0 0 0 0 0 0 0 0 0 0 0 0 0 0 0 0 0 0 0 0
0 0 0 0 0 0 0 0 0 0 0 0 0 0 0 0 0 0 0 0 0 0 0 0 0 0 0 0 0 0 0 0 0 0 0 0 0 0 0 0 0 0 0 0 0 0 0 0 0 0 0 0 0 0
0 0 0 0 0 0 0 0 0 0 0 0 0 0 0 0 0 0 0 0 0 0 0 0 0 0 0 0 0 0 0 0 0 0 0 0 0 0 0 0 0 0 0 0 0 0 0 0 0 -0 0 0 0 0
0 0 0 0 0 0 0 0 0 0 0 0 0 0 0 0 0 -0 0 0 0 0 0 0 0 0 0 0 0 0 0 0 0 0 0 0 -0 0 0 0 0 0 0 0 0 0 0 0 -0 -0 -0 0 -0 -0
0 0 0 0 0 0 0 0 0 0 0 0 0 0 0 0 0 0 0 0 0 0 0 0 0 0 0 0 0 0 0 0 0 0 0 0 0 0 0 0 0 0 0 0 0 0 0 0 0 0 0 0 0 -0
0 0 0 0 0 0 0 0 0 0 0 0 0 0 0 0 0 0 0 0 0 0 0 0 0 0 0 0 0 0 0 0 0 0 0 0 0 0 0 0 0 0 0 0 0 0 0 0 0 0 0 0 0 0
0 0 0 0 0 0 0 0 0 0 0 0 0 0 0 0 0 0 0 0 0 0 0 0 0 0 0 0 0 0 0 0 0 0 0 0 0 0 0 0 0 0 0 0 0 0 0 0 0 0 0 0 0 0
0 0 0 0 0 0 0 0 0 0 0 0 0 0 0 0 0 0 0 0 0 0 0 0 0 0 0 0 0 0 0 0 0 0 0 0 0 0 0 0 0 0 0 0 0 0 0 0 0 0 0 0 0 0
0 0 0 0 0 0 0 0 0 0 0 0 0 0 0 0 0 0 0 0 0 0 0 0 0 0 0 0 0 0 0 0 0 0 0 0 0 0 0 0 0 0 0 0 0 0 0 0 0 0 0 0 0 0
0 0 0 0 0 0 0 0 0 0 0 0 0 0 0 0 0 0 0 0 0 0 0 0 0 0 0 0 0 0 0 0 0 0 0 0 0 0 0 0 0 0 0 0 0 0 0 0 0 0 0 0 0 0
0 0 0 0 0 0 0 0 0 0 0 0 0 0 0 0 0 0 0 0 0 0 0 0 0 0 0 0 0 0 0 0 0 0 0 0 0 0 0 0 0 0 0 0 0 0 0 0 0 0 0 0 0 0
0 0 0 0 0 0 0 0 0 0 0 0 0 0 0 0 0 0 0 0 0 0 0 0 0 0 0 0 0 0 0 0 0 0 0 0 0 0 0 0 0 0 0 0 0 0 0 0 0 0 0 0 0 0
0 0 0 0 0 0 0 0 0 0 0 0 0 0 0 0 0 0 0 0 0 0 0 0 0 0 0 0 0 0 0 0 0 0 0 0 0 0 0 0 0 0 0 0 0 0 0 0 0 0 0 0 0 0
0 0 0 0 0 0 0 0 0 0 0 0 0 0 0 0 0 0 0 0 0 0 0 0 0 0 0 0 0 0 0 0 0 0 0 0 0 0 0 0 0 0 0 0 0 0 0 0 0 0 0 0 0 0
0 0 0 0 0 0 0 0 0 0 0 0 0 0 0 0 0 0 0 0 0 0 0 0 0 0 0 0 0 0 0 0 0 0 0 0 0 0 0 0 0 0 0 0 0 0 0 0 0 0 0 0 0 0
0 0 0 0 0 0 0 0 0 0 0 0 0 0 0 0 0 0 0 0 0 0 0 0 0 0 0 0 0 0 0 0 0 0 0 0 0 0 0 0 0 0 0 0 0 0 0 0 0 0 0 0 0 0
0 0 0 0 0 0 0 0 0 0 0 0 0 0 0 0 0 0 0 0 0 0 0 0 0 0 0 0 0 0 0 0 0 0 0 0 0 0 0 0 0 0 0 0 0 0 0 0 0 0 0 0 0 0
0 0 0 0 0 0 0 0 0 0 0 0 0 0 0 0 -0 0 0 0 0 0 0 0 0 0 0 0 0 0 0 0 0 0 0 0 0 0 0 0 0 0 0 0 0 0 0 0 0 0 0 0 0 0
Wind_Speed_500mb
10 5 6 12 18 24 30 37 41 41 40 37 32 28 22 24 27 34 40 43 47 48 42 44 50 48 28 25 8 19 7 25 17 13 9 9 9 14 11 10 5 5 4 6 9 10 6 27 19 11 5 33 30 29
11 5 4 9 16 22 28 35 40 40 38 35 29 25 16 18 24 27 36 33 24 29 35 35 36 31 28 22 13 30 18 17 17 6 9 9 6 5 10 5 5 8 6 6 8 6 23 23 35 28 26 27 22 17
11 5 2 8 15 21 27 33 38 38 35 30 25 21 17 18 14 21 32 33 41 43 32 35 32 29 18 25 18 8 13 11 6 7 6 8 11 5 4 5 1 12 34 8 10 13 35 29 26 21 17 14 12 17
12 6 1 8 14 20 26 32 37 35 32 26 22 18 14 15 19 21 31 27 9 5 10 17 20 27 19 17 15 11 11 8 11 9 10 8 7 10 3 8 15 14 9 7 7 20 29 22 16 12 13 15 12 12
12 6 2 9 14 20 25 30 34 32 28 22 19 15 12 14 17 23 29 31 31 15 9 14 20 30 20 18 15 14 17 12 14 8 8 7 21 6 7 10 15 29 13 7 3 20 16 13 11 10 9 10 9 7
13 7 3 9 14 19 24 28 31 28 22 16 16 15 12 15 17 14 7 15 19 21 10 5 12 11 18 25 20 16 15 21 9 7 4 15 19 39 6 5 32 42 19 17 10 6 2 3 8 7 10 10 8 4
14 9 5 10 15 20 23 27 28 24 17 13 17 22 17 8 12 10 6 6 11 14 9 14 10 9 9 3 12 17 21 19 19 9 33 31 34 25 8 7 25 36 32 38 31 13 4 9 8 7 8 4 11 8
15 9 5 10 15 21 22 27 24 18 13 15 22 26 27 28 20 17 16 11 14 12 7 2 3 4 6 9 5 4 5 14 14 8 26 14 19 14 7 16 27 30 32 40 39 49 18 6 18 7 12 4 12 15
15 8 7 10 15 19 21 23 18 12 17 20 19 17 15 19 9 19 21 19 21 15 11 15 4 3 4 8 7 1 1 4 3 11 13 14 7 8 9 20 22 28 34 36 35 38 38 37 38 28 17 19 22 16
14 9 6 10 14 16 19 17 11 15 15 14 16 11 9 12 12 12 14 8 12 11 10 22 37 7 21 30 3 0 4 8 5 3 17 8 6 14 16 18 20 23 28 32 38 41 40 41 42 44 42 38 33 27
15 7 5 8 11 14 14 10 8 12 3 16 14 7 12 9 6 6 4 3 4 6 12 11 23 18 23 9 7 8 7 4 3 3 8 6 5 23 23 23 26 28 29 31 39 34 39 41 43 46 50 46 40 34
13 6 2 6 9 10 9 9 7 4 12 12 12 8 9 9 5 5 1 4 13 7 9 14 14 10 12 9 7 12 5 4 6 8 8 5 7 19 25 25 31 33 34 33 33 39 36 36 37 47 53 51 47 35
12 6 0 5 7 7 7 12 19 18 13 14 9 7 8 3 5 6 6 5 6 8 16 22 5 8 4 4 8 5 4 5 8 7 6 5 28 28 26 26 30 29 30 30 35 40 41 42 39 39 47 49 37 29
12 6 3 5 6 6 9 17 15 15 12 9 3 9 3 3 10 11 15 19 18 22 20 22 11 7 4 8 5 6 6 5 4 7 5 10 22 22 21 16 24 31 40 29 40 53 41 45 46 41 45 42 42 33
12 6 5 5 7 9 12 15 13 15 12 8 9 4 9 20 28 26 26 24 22 25 18 25 5 11 5 5 4 8 6 9 9 5 6 19 17 18 19 19 24 27 31 36 42 38 50 46 52 46 41 42 43 31
9 6 6 8 10 14 16 18 20 17 8 6 3 7 17 22 33 36 30 26 18 25 30 9 7 6 5 7 6 7 8 8 4 13 25 12 9 11 18 27 23 21 31 30 28 41 43 46 51 50 40 38 35 38
7 5 7 12 16 19 16 18 13 8 7 7 13 28 38 34 30 25 20 22 27 25 14 7 8 6 11 6 8 8 6 6 19 18 8 6 8 14 21 27 27 31 26 32 35 42 29 43 50 57 51 47 41 40
6 8 13 19 19 18 19 12 5 4 4 11 18 28 32 29 27 22 19 21 21 17 17 9 8 5 5 10 8 21 29 25 17 12 12 12 12 16 13 19 29 16 31 43 37 30 39 38 42 56 55 52 45 48
10 14 19 20 17 13 6 9 7 8 13 15 19 21 14 12 15 12 14 18 17 15 7 12 5 7 7 14 27 28 23 20 18 12 11 10 8 9 15 22 23 31 35 33 31 36 34 31 39 51 60 54 47 61
14 20 23 18 13 7 5 6 8 3 6 8 9 7 15 13 6 5 5 11 10 7 2 4 11 24 25 17 13 12 14 18 15 26 27 23 4 13 24 30 30 34 32 29 39 35 33 29 40 42 44 51 48 52
19 21 18 16 19 8 5 4 6 7 4 3 9 3 7 1 1 7 9 12 6 4 20 27 26 17 12 10 9 12 15 17 17 20 26 30 31 37 38 30 28 33 44 39 25 29 40 36 33 32 39 44 49 49
23 19 17 14 8 5 5 7 6 3 3 9 6 5 3 1 4 10 7 7 1 24 20 17 21 14 10 7 6 9 11 12 16 17 22 29 22 28 37 36 41 38 33 42 51 37 32 35 36 34 33 39 42 45
25 19 10 6 3 7 4 3 2 2 4 6 1 3 4 6 7 5 6 2 16 8 5 4 9 2 2 8 4 9 16 20 18 25 27 33 33 29 33 40 50 51 45 39 34 38 37 34 38 39 40 44 39 41
14 6 3 3 4 4 1 3 2 3 2 7 5 2 5 5 6 5 6 8 12 13 12 9 9 1 5 11 13 23 16 14 19 24 24 38 39 39 42 41 38 44 45 39 39 32 37 41 42 42 51 44 50 50
4 6 5 3 1 2 5 6 5 4 5 8 3 1 4 4 4 4 2 0 12 13 9 11 9 14 15 4 4 7 18 19 19 27 35 35 40 44 42 41 41 36 45 51 49 46 46 44 40 46 48 46 47 43
3 3 7 6 6 6 5 4 6 6 5 4 5 2 3 4 4 4 3 18 18 8 5 7 12 16 18 15 21 17 16 21 28 27 27 32 34 42 34 37 44 50 57 58 56 46 47 49 47 48 46 42 47 46
2 7 6 6 4 3 6 8 8 7 6 6 4 9 5 4 6 7 12 9 9 5 2 6 11 12 18 23 21 26 28 25 24 23 28 33 29 34 37 39 45 53 58 34 37 41 45 51 56 58 60 61 62 59
5 5 10 11 10 12 7 6 5 4 5 3 5 3 2 1 3 8 4 8 11 17 20 15 14 18 20 20 27 19 21 14 26 34 36 28 20 30 43 51 52 39 36 37 39 40 44 48 52 54 55 58 57 47
11 14 14 14 13 6 8 7 9 9 3 2 1 2 4 11 6 4 5 6 9 10 14 16 16 22 18 21 20 14 25 31 37 31 28 32 35 36 41 43 43 45 43 42 43 42 42 48 50 47 48 51 52 42
18 20 15 15 21 12 6 2 3 3 4 8 10 13 16 13 11 8 10 16 19 17 19 21 22 16 18 18 18 19 21 23 28 33 39 44 42 36 35 39 49 54 45 43 48 54 50 51 55 52 51 50 45 46
12 18 9 13 10 4 9 13 5 5 10 11 10 15 21 29 36 35 26 28 31 27 20 19 18 17 16 19 20 23 20 25 37 42 40 32 29 31 39 47 48 51 42 38 44 50 53 53 52 55 54 50 45 51
16 19 11 9 5 7 10 6 14 17 19 22 28 30 33 35 41 41 30 30 27 19 20 20 24 23 18 20 24 26 30 34 39 32 35 39 42 48 47 51 44 39 41 43 47 50 57 56 48 48 51 46 41 45
21 19 18 10 8 16 17 19 18 18 26 35 43 41 40 43 40 33 21 22 27 19 18 21 23 24 29 31 33 32 25 26 28 29 35 39 45 39 49 45 44 43 44 47 50 55 54 58 52 47 48 46 40 41
Wind_Direction_500mb
147 113 41 11 7 4 2 3 5 5 6 10 16 26 50 61 66 71 66 77 95 90 61 55 52 45 38 35 33 340 17 16 17 21 25 28 54 48 345 324 185 70 69 311 31 66 22 19 23 71 87 58 56 57
155 136 40 6 360 358 359 0 3 5 6 10 14 27 62 67 64 79 79 84 98 94 92 59 58 58 47 31 37 50 82 50 31 20 12 79 52 104 245 74 357 3 78 80 82 156 129 92 91 75 70 67 62 54
162 163 30 356 353 352 356 358 2 4 6 10 14 28 65 74 85 80 85 92 106 116 82 57 39 24 45 30 37 81 61 53 5 341 306 96 80 116 283 290 208 53 60 47 77 38 75 101 93 87 76 77 74 62
173 180 324 342 346 348 353 356 360 2 5 10 18 32 70 85 79 83 71 43 105 170 102 67 35 29 37 54 31 92 98 49 15 320 73 97 107 49 260 22 59 44 59 68 71 68 93 81 78 75 90 84 65 82
181 195 287 328 340 346 351 355 357 0 5 12 25 41 76 87 93 87 66 39 42 80 92 129 33 24 45 55 54 74 67 25 349 52 60 98 102 12 137 49 36 43 50 44 121 68 90 72 78 68 77 69 64 79
186 205 273 319 334 341 349 354 356 359 6 23 39 55 89 103 100 95 38 33 39 53 125 74 66 44 56 61 70 68 18 10 8 87 87 84 125 177 105 77 26 22 37 36 76 81 89 209 101 75 107 116 99 120
191 206 262 315 329 340 347 353 356 0 13 47 68 74 82 117 36 62 71 36 42 32 17 127 125 36 25 83 78 49 35 27 34 80 86 87 72 79 56 65 37 22 32 41 21 294 340 44 124 164 223 264 170 195
196 209 269 310 331 339 346 353 358 8 36 76 94 85 77 75 73 78 77 81 16 354 321 109 102 142 3 161 81 1 129 54 35 37 71 79 54 70 66 33 53 30 26 24 18 33 62 15 348 215 231 208 211 234
196 212 268 317 336 341 349 355 7 46 88 90 96 86 52 46 68 81 76 59 36 26 353 13 110 135 328 163 159 97 280 82 311 89 71 76 57 52 98 56 46 27 23 14 12 12 8 4 0 356 236 258 239 242
195 218 280 322 338 348 353 3 38 106 82 33 41 39 50 88 77 62 52 35 12 351 3 34 29 37 6 359 194 103 243 150 146 81 96 86 63 117 102 73 47 24 16 11 8 1 6 4 356 345 335 333 304 251
196 212 286 326 348 357 359 24 92 137 81 42 35 48 111 30 36 33 13 303 232 89 20 20 32 4 15 9 319 19 304 351 107 201 110 99 82 41 56 42 39 26 17 17 11 5 1 351 344 339 341 332 317 293
189 199 270 348 5 5 20 35 41 42 74 76 94 66 14 360 351 330 110 215 27 61 18 21 21 18 344 340 299 9 313 333 77 175 85 82 89 50 41 36 25 13 359 1 356 350 343 351 347 346 346 334 325 311
179 177 114 22 22 30 65 80 102 96 71 63 40 12 2 323 28 253 143 53 53 56 6 345 62 346 299 329 302 355 289 14 307 55 66 59 59 48 37 22 14 15 16 16 12 4 354 345 339 341 340 338 340 342
169 153 76 49 50 70 98 119 92 71 44 26 2 346 191 79 43 45 64 62 46 17 355 333 8 4 346 9 330 302 29 327 8 61 76 82 58 60 51 26 3 5 4 356 354 351 342 347 341 336 339 336 337 332
153 122 64 71 80 96 105 124 97 75 43 10 323 11 49 73 78 78 75 52 17 10 355 346 305 340 46 302 35 36 284 73 37 69 98 84 56 30 6 350 357 345 352 343 342 353 1 355 352 338 338 337 338 326
143 117 58 88 103 113 106 99 81 47 19 338 287 106 123 105 58 48 46 36 358 336 319 318 0 59 346 326 284 25 45 38 51 107 122 107 36 6 360 356 355 350 341 343 350 344 346 349 348 352 338 340 330 342
127 75 88 108 116 114 98 79 59 27 358 338 48 63 76 77 75 54 33 2 3 25 14 333 34 354 284 294 44 33 50 94 143 133 107 31 53 29 13 21 2 345 352 347 347 344 336 347 350 0 357 355 344 332
106 112 120 118 116 112 76 60 46 359 70 34 67 59 65 68 83 60 30 32 33 16 19 23 327 297 12 44 51 54 63 72 60 36 58 36 351 341 349 332 353 345 349 346 341 345 341 338 349 3 356 353 348 339
113 122 125 119 108 86 55 16 40 39 47 56 64 68 66 66 70 58 36 29 23 26 12 350 294 36 56 58 47 59 58 28 15 135 332 17 26 352 338 339 325 325 335 343 342 338 345 339 342 349 358 353 350 356
127 127 121 107 90 78 68 30 41 55 86 53 90 59 79 72 68 39 44 15 355 344 342 336 52 93 93 72 52 50 42 27 12 4 5 359 320 348 320 322 326 320 317 327 333 331 342 340 336 340 350 359 354 356
126 131 124 99 56 70 107 55 48 58 105 75 83 1 94 257 277 53 33 345 309 336 45 84 94 88 74 80 48 42 26 14 350 339 339 326 328 329 324 332 339 339 341 345 339 328 334 325 337 341 342 355 -0 5
122 121 90 50 53 46 71 43 57 160 355 97 157 240 205 98 73 66 339 262 85 73 56 70 81 98 84 70 80 355 331 318 322 333 339 334 347 346 3 359 354 342 317 328 333 322 332 324 346 350 344 354 347 345
112 88 64 39 63 56 53 51 199 331 162 152 185 202 159 193 103 12 261 312 104 88 76 67 11 348 339 344 215 306 344 337 328 344 8 347 348 344 335 328 340 338 337 342 340 338 336 334 339 338 334 331 334 336
112 77 56 52 50 51 83 184 55 193 243 205 230 178 113 62 72 262 275 94 91 90 106 46 352 295 195 298 303 313 352 333 321 331 343 338 336 332 332 336 337 335 323 328 336 333 325 318 309 310 313 326 326 330
52 48 43 11 336 192 196 167 214 196 241 202 197 207 124 103 255 248 129 109 101 90 59 36 16 6 0 335 317 357 344 333 337 338 337 334 336 331 331 329 331 320 313 317 331 334 329 326 330 333 329 318 314 324
66 180 191 196 167 240 176 205 197 235 261 172 225 231 106 166 280 267 90 87 94 102 70 25 359 338 352 352 359 1 353 333 329 329 323 334 338 334 329 324 320 314 315 319 324 321 317 312 311 311 306 316 310 310
234 169 214 248 244 240 271 239 216 216 234 211 183 177 199 220 244 97 100 80 85 85 26 322 337 313 307 312 315 318 324 339 315 319 325 322 331 326 321 321 320 320 323 338 324 323 324 324 319 312 306 301 301 298
259 206 208 199 231 221 254 201 222 247 252 198 357 269 259 91 60 123 154 262 284 295 294 293 299 290 285 286 305 312 322 302 307 313 315 322 313 304 300 301 311 323 339 340 339 345 340 333 328 329 327 327 322 315
233 221 211 199 217 188 251 243 217 205 61 76 199 52 337 12 67 133 272 252 269 289 286 293 278 289 294 303 309 298 308 310 318 320 315 316 318 315 312 321 331 332 329 323 326 337 334 343 340 337 339 335 333 317
223 213 209 209 213 221 209 306 115 78 259 268 247 260 241 241 267 270 275 294 291 284 278 278 287 284 284 291 299 305 316 313 299 297 304 312 317 323 330 318 316 320 322 324 325 326 330 337 343 343 342 334 343 344
209 192 222 250 242 181 264 227 254 248 264 290 274 270 270 277 274 277 271 273 262 275 265 261 267 267 269 288 291 289 289 280 285 296 308 319 326 314 312 317 319 319 333 339 348 350 344 337 337 340 342 341 339 341
219 207 221 197 220 293 210 221 244 253 259 257 255 257 259 257 257 273 277 253 235 240 248 254 270 279 265 256 267 273 283 285 297 310 326 328 330 330 333 333 331 339 353 349 345 345 347 343 337 336 339 339 337 335
212 217 225 167 201 214 239 236 245 247 252 256 248 248 252 245 251 266 260 228 219 230 240 237 245 262 267 269 280 284 292 309 322 316 311 316 320 333 342 351 1 359 350 341 337 338 341 343 340 334 334 339 332 330
Wind_Speed_850mb
10 5 6 12 18 24 30 37 41 41 40 37 32 28 22 24 27 34 40 43 47 48 42 44 50 48 28 25 8 19 7 25 17 13 9 9 9 14 11 10 5 5 4 6 9 10 6 27 19 11 5 33 30 29
11 5 4 9 16 22 28 35 40 40 38 35 29 25 16 18 24 27 36 33 24 29 35 35 36 31 28 22 13 30 18 17 17 6 9 9 6 5 10 5 5 8 6 6 8 6 23 23 35 28 26 27 22 17
11 5 2 8 15 21 27 33 38 38 35 30 25 21 17 18 14 21 32 33 41 43 32 35 32 29 18 25 18 8 13 11 6 7 6 8 11 5 4 5 1 12 34 8 10 13 35 29 26 21 17 14 12 17
12 6 1 8 14 20 26 32 37 35 32 26 22 18 14 15 19 21 31 27 9 5 10 17 20 27 19 17 15 11 11 8 11 9 10 8 7 10 3 8 15 14 9 7 7 20 29 22 16 12 13 15 12 12
12 6 2 9 14 20 25 30 34 32 28 22 19 15 12 14 17 23 29 31 31 15 9 14 20 30 20 18 15 14 17 12 14 8 8 7 21 6 7 10 15 29 13 7 3 20 16 13 11 10 9 10 9 7
13 7 3 9 14 19 24 28 31 28 22 16 16 15 12 15 17 14 7 15 19 21 10 5 12 11 18 25 20 16 15 21 9 7 4 15 19 39 6 5 32 42 19 17 10 6 2 3 8 7 10 10 8 4
14 9 5 10 15 20 23 27 28 24 17 13 17 22 17 8 12 10 6 6 11 14 9 14 10 9 9 3 12 17 21 19 19 9 33 31 34 25 8 7 25 36 32 38 31 13 4 9 8 7 8 4 11 8
15 9 5 10 15 21 22 27 24 18 13 15 22 26 27 28 20 17 16 11 14 12 7 2 3 4 6 9 5 4 5 14 14 8 26 14 19 14 7 16 27 30 32 40 39 49 18 6 18 7 12 4 12 15
15 8 7 10 15 19 21 23 18 12 17 20 19 17 15 19 9 19 21 19 21 15 11 15 4 3 4 8 7 1 1 4 3 11 13 14 7 8 9 20 22 28 34 36 35 38 38 37 38 28 17 19 22 16
14 9 6 10 14 16 19 17 11 15 15 14 16 11 9 12 12 12 14 8 12 11 10 22 37 7 21 30 3 0 4 8 5 3 17 8 6 14 16 18 20 23 28 32 38 41 40 41 42 44 42 38 33 27
15 7 5 8 11 14 14 10 8 12 3 16 14 7 12 9 6 6 4 3 4 6 12 11 23 18 23 9 7 8 7 4 3 3 8 6 5 23 23 23 26 28 29 31 39 34 39 41 43 46 50 46 40 34
13 6 2 6 9 10 9 9 7 4 12 12 12 8 9 9 5 5 1 4 13 7 9 14 14 10 12 9 7 12 5 4 6 8 8 5 7 19 25 25 31 33 34 33 33 39 36 36 37 47 53 51 47 35
12 6 0 5 7 7 7 12 19 18 13 14 9 7 8 3 5 6 6 5 6 8 16 22 5 8 4 4 8 5 4 5 8 7 6 5 28 28 26 26 30 29 30 30 35 40 41 42 39 39 47 49 37 29
12 6 3 5 6 6 9 17 15 15 12 9 3 9 3 3 10 11 15 19 18 22 20 22 11 7 4 8 5 6 6 5 4 7 5 10 22 22 21 16 24 31 40 29 40 53 41 45 46 41 45 42 42 33
12 6 5 5 7 9 12 15 13 15 12 8 9 4 9 20 28 26 26 24 22 25 18 25 5 11 5 5 4 8 6 9 9 5 6 19 17 18 19 19 24 27 31 36 42 38 50 46 52 46 41 42 43 31
9 6 6 8 10 14 16 18 20 17 8 6 3 7 17 22 33 36 30 26 18 25 30 9 7 6 5 7 6 7 8 8 4 13 25 12 9 11 18 27 23 21 31 30 28 41 43 46 51 50 40 38 35 38
7 5 7 12 16 19 16 18 13 8 7 7 13 28 38 34 30 25 20 22 27 25 14 7 8 6 11 6 8 8 6 6 19 18 8 6 8 14 21 27 27 31 26 32 35 42 29 43 50 57 51 47 41 40
6 8 13 19 19 18 19 12 5 4 4 11 18 28 32 29 27 22 19 21 21 17 17 9 8 5 5 10 8 21 29 25 17 12 12 12 12 16 13 19 29 16 31 43 37 30 39 38 42 56 55 52 45 48
10 14 19 20 17 13 6 9 7 8 13 15 19 21 14 12 15 12 14 18 17 15 7 12 5 7 7 14 27 28 23 20 18 12 11 10 8 9 15 22 23 31 35 33 31 36 34 31 39 51 60 54 47 61
14 20 23 18 13 7 5 6 8 3 6 8 9 7 15 13 6 5 5 11 10 7 2 4 11 24 25 17 13 12 14 18 15 26 27 23 4 13 24 30 30 34 32 29 39 35 33 29 40 42 44 51 48 52
19 21 18 16 19 8 5 4 6 7 4 3 9 3 7 1 1 7 9 12 6 4 20 27 26 17 12 10 9 12 15 17 17 20 26 30 31 37 38 30 28 33 44 39 25 29 40 36 33 32 39 44 49 49
23 19 17 14 8 5 5 7 6 3 3 9 6 5 3 1 4 10 7 7 1 24 20 17 21 14 10 7 6 9 11 12 16 17 22 29 22 28 37 36 41 38 33 42 51 37 32 35 36 34 33 39 42 45
25 19 10 6 3 7 4 3 2 2 4 6 1 3 4 6 7 5 6 2 16 8 5 4 9 2 2 8 4 9 16 20 18 25 27 33 33 29 33 40 50 51 45 39 34 38 37 34 38 39 40 44 39 41
14 6 3 3 4 4 1 3 2 3 2 7 5 2 5 5 6 5 6 8 12 13 12 9 9 1 5 11 13 23 16 14 19 24 24 38 39 39 42 41 38 44 45 39 39 32 37 41 42 42 51 44 50 50
4 6 5 3 1 2 5 6 5 4 5 8 3 1 4 4 4 4 2 0 12 13 9 11 9 14 15 4 4 7 18 19 19 27 35 35 40 44 42 41 41 36 45 51 49 46 46 44 40 46 48 46 47 43
3 3 7 6 6 6 5 4 6 6 5 4 5 2 3 4 4 4 3 18 18 8 5 7 12 16 18 15 21 17 16 21 28 27 27 32 34 42 34 37 44 50 57 58 56 46 47 49 47 48 46 42 47 46
2 7 6 6 4 3 6 8 8 7 6 6 4 9 5 4 6 7 12 9 9 5 2 6 11 12 18 23 21 26 28 25 24 23 28 33 29 34 37 39 45 53 58 34 37 41 45 51 56 58 60 61 62 59
5 5 10 11 10 12 7 6 5 4 5 3 5 3 2 1 3 8 4 8 11 17 20 15 14 18 20 20 27 19 21 14 26 34 36 28 20 30 43 51 52 39 36 37 39 40 44 48 52 54 55 58 57 47
11 14 14 14 13 6 8 7 9 9 3 2 1 2 4 11 6 4 5 6 9 10 14 16 16 22 18 21 20 14 25 31 37 31 28 32 35 36 41 43 43 45 43 42 43 42 42 48 50 47 48 51 52 42
18 20 15 15 21 12 6 2 3 3 4 8 10 13 16 13 11 8 10 16 19 17 19 21 22 16 18 18 18 19 21 23 28 33 39 44 42 36 35 39 49 54 45 43 48 54 50 51 55 52 51 50 45 46
12 18 9 13 10 4 9 13 5 5 10 11 10 15 21 29 36 35 26 28 31 27 20 19 18 17 16 19 20 23 20 25 37 42 40 32 29 31 39 47 48 51 42 38 44 50 53 53 52 55 54 50 45 51
16 19 11 9 5 7 10 6 14 17 19 22 28 30 33 35 41 41 30 30 27 19 20 20 24 23 18 20 24 26 30 34 39 32 35 39 42 48 47 51 44 39 41 43 47 50 57 56 48 48 51 46 41 45
21 19 18 10 8 16 17 19 18 18 26 35 43 41 40 43 40 33 21 22 27 19 18 21 23 24 29 31 33 32 25 26 28 29 35 39 45 39 49 45 44 43 44 47 50 55 54 58 52 47 48 46 40 41
Wind_Direction_850mb
147 113 41 11 7 4 2 3 5 5 6 10 16 26 50 61 66 71 66 77 95 90 61 55 52 45 38 35 33 340 17 16 17 21 25 28 54 48 345 324 185 70 69 311 31 66 22 19 23 71 87 58 56 57
155 136 40 6 360 358 359 0 3 5 6 10 14 27 62 67 64 79 79 84 98 94 92 59 58 58 47 31 37 50 82 50 31 20 12 79 52 104 245 74 357 3 78 80 82 156 129 92 91 75 70 67 62 54
162 163 30 356 353 352 356 358 2 4 6 10 14 28 65 74 85 80 85 92 106 116 82 57 39 24 45 30 37 81 61 53 5 341 306 96 80 116 283 290 208 53 60 47 77 38 75 101 93 87 76 77 74 62
173 180 324 342 346 348 353 356 360 2 5 10 18 32 70 85 79 83 71 43 105 170 102 67 35 29 37 54 31 92 98 49 15 320 73 97 107 49 260 22 59 44 59 68 71 68 93 81 78 75 90 84 65 82
181 195 287 328 340 346 351 355 357 0 5 12 25 41 76 87 93 87 66 39 42 80 92 129 33 24 45 55 54 74 67 25 349 52 60 98 102 12 137 49 36 43 50 44 121 68 90 72 78 68 77 69 64 79
186 205 273 319 334 341 349 354 356 359 6 23 39 55 89 103 100 95 38 33 39 53 125 74 66 44 56 61 70 68 18 10 8 87 87 84 125 177 105 77 26 22 37 36 76 81 89 209 101 75 107 116 99 120
191 206 262 315 329 340 347 353 356 0 13 47 68 74 82 117 36 62 71 36 42 32 17 127 125 36 25 83 78 49 35 27 34 80 86 87 72 79 56 65 37 22 32 41 21 294 340 44 124 164 223 264 170 195
196 209 269 310 331 339 346 353 358 8 36 76 94 85 77 75 73 78 77 81 16 354 321 109 102 142 3 161 81 1 129 54 35 37 71 79 54 70 66 33 53 30 26 24 18 33 62 15 348 215 231 208 211 234
196 212 268 317 336 341 349 355 7 46 88 90 96 86 52 46 68 81 76 59 36 26 353 13 110 135 328 163 159 97 280 82 311 89 71 76 57 52 98 56 46 27 23 14 12 12 8 4 0 356 236 258 239 242
195 218 280 322 338 348 353 3 38 106 82 33 41 39 50 88 77 62 52 35 12 351 3 34 29 37 6 359 194 103 243 150 146 81 96 86 63 117 102 73 47 24 16 11 8 1 6 4 356 345 335 333 304 251
196 212 286 326 348 357 359 24 92 137 81 42 35 48 111 30 36 33 13 303 232 89 20 20 32 4 15 9 319 19 304 351 107 201 110 99 82 41 56 42 39 26 17 17 11 5 1 351 344 339 341 332 317 293
189 199 270 348 5 5 20 35 41 42 74 76 94 66 14 360 351 330 110 215 27 61 18 21 21 18 344 340 299 9 313 333 77 175 85 82 89 50 41 36 25 13 359 1 356 350 343 351 347 346 346 334 325 311
179 177 114 22 22 30 65 80 102 96 71 63 40 12 2 323 28 253 143 53 53 56 6 345 62 346 299 329 302 355 289 14 307 55 66 59 59 48 37 22 14 15 16 16 12 4 354 345 339 341 340 338 340 342
169 153 76 49 50 70 98 119 92 71 44 26 2 346 191 79 43 45 64 62 46 17 355 333 8 4 346 9 330 302 29 327 8 61 76 82 58 60 51 26 3 5 4 356 354 351 342 347 341 336 339 336 337 332
153 122 64 71 80 96 105 124 97 75 43 10 323 11 49 73 78 78 75 52 17 10 355 346 305 340 46 302 35 36 284 73 37 69 98 84 56 30 6 350 357 345 352 343 342 353 1 355 352 338 338 337 338 326
143 117 58 88 103 113 106 99 81 47 19 338 287 106 123 105 58 48 46 36 358 336 319 318 0 59 346 326 284 25 45 38 51 107 122 107 36 6 360 356 355 350 341 343 350 344 346 349 348 352 338 340 330 342
127 75 88 108 116 114 98 79 59 27 358 338 48 63 76 77 75 54 33 2 3 25 14 333 34 354 284 294 44 33 50 94 143 133 107 31 53 29 13 21 2 345 352 347 347 344 336 347 350 0 357 355 344 332
106 112 120 118 116 112 76 60 46 359 70 34 67 59 65 68 83 60 30 32 33 16 19 23 327 297 12 44 51 54 63 72 60 36 58 36 351 341 349 332 353 345 349 346 341 345 341 338 349 3 356 353 348 339
113 122 125 119 108 86 55 16 40 39 47 56 64 68 66 66 70 58 36 29 23 26 12 350 294 36 56 58 47 59 58 28 15 135 332 17 26 352 338 339 325 325 335 343 342 338 345 339 342 349 358 353 350 356
127 127 121 107 90 78 68 30 41 55 86 53 90 59 79 72 68 39 44 15 355 344 342 336 52 93 93 72 52 50 42 27 12 4 5 359 320 348 320 322 326 320 317 327 333 331 342 340 336 340 350 359 354 356
126 131 124 99 56 70 107 55 48 58 105 75 83 1 94 257 277 53 33 345 309 336 45 84 94 88 74 80 48 42 26 14 350 339 339 326 328 329 324 332 339 339 341 345 339 328 334 325 337 341 342 355 -0 5
122 121 90 50 53 46 71 43 57 160 355 97 157 240 205 98 73 66 339 262 85 73 56 70 81 98 84 70 80 355 331 318 322 333 339 334 347 346 3 359 354 342 317 328 333 322 332 324 346 350 344 354 347 345
112 88 64 39 63 56 53 51 199 331 162 152 185 202 159 193 103 12 261 312 104 88 76 67 11 348 339 344 215 306 344 337 328 344 8 347 348 344 335 328 340 338 337 342 340 338 336 334 339 338 334 331 334 336
112 77 56 52 50 51 83 184 55 193 243 205 230 178 113 62 72 262 275 94 91 90 106 46 352 295 195 298 303 313 352 333 321 331 343 338 336 332 332 336 337 335 323 328 336 333 325 318 309 310 313 326 326 330
52 48 43 11 336 192 196 167 214 196 241 202 197 207 124 103 255 248 129 109 101 90 59 36 16 6 0 335 317 357 344 333 337 338 337 334 336 331 331 329 331 320 313 317 331 334 329 326 330 333 329 318 314 324
66 180 191 196 167 240 176 205 197 235 261 172 225 231 106 166 280 267 90 87 94 102 70 25 359 338 352 352 359 1 353 333 329 329 323 334 338 334 329 324 320 314 315 319 324 321 317 312 311 311 306 316 310 310
234 169 214 248 244 240 271 239 216 216 234 211 183 177 199 220 244 97 100 80 85 85 26 322 337 313 307 312 315 318 324 339 315 319 325 322 331 326 321 321 320 320 323 338 324 323 324 324 319 312 306 301 301 298
259 206 208 199 231 221 254 201 222 247 252 198 357 269 259 91 60 123 154 262 284 295 294 293 299 290 285 286 305 312 322 302 307 313 315 322 313 304 300 301 311 323 339 340 339 345 340 333 328 329 327 327 322 315
233 221 211 199 217 188 251 243 217 205 61 76 199 52 337 12 67 133 272 252 269 289 286 293 278 289 294 303 309 298 308 310 318 320 315 316 318 315 312 321 331 332 329 323 326 337 334 343 340 337 339 335 333 317
223 213 209 209 213 221 209 306 115 78 259 268 247 260 241 241 267 270 275 294 291 284 278 278 287 284 284 291 299 305 316 313 299 297 304 312 317 323 330 318 316 320 322 324 325 326 330 337 343 343 342 334 343 344
209 192 222 250 242 181 264 227 254 248 264 290 274 270 270 277 274 277 271 273 262 275 265 261 267 267 269 288 291 289 289 280 285 296 308 319 326 314 312 317 319 319 333 339 348 350 344 337 337 340 342 341 339 341
219 207 221 197 220 293 210 221 244 253 259 257 255 257 259 257 257 273 277 253 235 240 248 254 270 279 265 256 267 273 283 285 297 310 326 328 330 330 333 333 331 339 353 349 345 345 347 343 337 336 339 339 337 335
212 217 225 167 201 214 239 236 245 247 252 256 248 248 252 245 251 266 260 228 219 230 240 237 245 262 267 269 280 284 292 309 322 316 311 316 320 333 342 351 1 359 350 341 337 338 341 343 340 334 334 339 332 330